Weather History for Glenwood, MN

Change the Weather History Date:

Saturday, December 22, 2012

  Actual Average Record
Temperature  
Mean Temperature 13 °F -  
Max Temperature 23 °F 21 °F 42 °F (1986)
Min Temperature 3 °F 5 °F -27 °F (1983)
Degree Days  
Heating Degree Days 52    
Moisture  
Dew Point 7 °F    
Average Humidity 84    
Maximum Humidity 92    
Minimum Humidity 73    
Precipitation  
Precipitation 0.00 in - - ()
Sea Level Pressure  
Sea Level Pressure 30.01 in    
Wind  
Wind Speed 5 mph (North)    
Max Wind Speed 14 mph    
Max Gust Speed 18 mph    
Visibility 10 miles    
Events Snow    
Averages and records for this station are not official NWS values.
T = Trace of Precipitation, MM = Missing Value Source: NWS Daily Summary

Daily Weather History Graph

Daily Weather History Graph

Search for Another Location

Airport:

Trip Planner

Search our weather history database for the weather conditions in past years. The results will help you decide how hot, cold, wet, or windy it might be!

Date:

Astronomy

Dec. 22, 2012 Rise Set
Actual Time 7:59 AM CST 4:40 PM CST
Civil Twilight 7:25 AM CST 5:15 PM CST
Nautical Twilight 6:47 AM CST 5:52 PM CST
Astronomical Twilight 6:11 AM CST 6:29 PM CST
Moon 1:07 PM CST (12/22) 2:36 AM CST (12/22)
Length of Visible Light 9h 50m
Length of Day
8h 41m
Waxing Gibbous, 74% of the Moon is Illuminated
Dec 22
Waxing Gibbous
Dec 28
Full
Jan 4
Last Quarter
Jan 11
New
Jan 18
First Quarter

Hourly Weather History & Observations

Time (CST) Temp. Windchill Dew Point Humidity Pressure Visibility Wind Dir Wind Speed Gust Speed Precip Events Conditions
12:13 AM 3.2 °F -4.2 °F -0.4 °F 85% 30.09 in 10.0 mi ESE 3.5 mph - N/A   Clear
12:33 AM 3.2 °F -7.8 °F 1.4 °F 92% 30.09 in 10.0 mi East 5.8 mph - N/A   Clear
12:53 AM 3.2 °F -4.2 °F -0.4 °F 85% 30.09 in 10.0 mi East 3.5 mph - N/A   Clear
1:13 AM 3.2 °F -9.1 °F 1.4 °F 92% 30.08 in 10.0 mi East 6.9 mph - N/A   Clear
1:33 AM 3.2 °F -10.3 °F -0.4 °F 85% 30.07 in 10.0 mi East 8.1 mph - N/A   Clear
1:53 AM 3.2 °F -9.1 °F 1.4 °F 92% 30.06 in 10.0 mi ESE 6.9 mph - N/A   Clear
2:13 AM 3.2 °F -9.1 °F 1.4 °F 92% 30.05 in 10.0 mi ESE 6.9 mph - N/A   Clear
2:33 AM 5.0 °F -6.9 °F 1.4 °F 85% 30.05 in 10.0 mi ESE 6.9 mph - N/A   Clear
3:14 AM 6.8 °F -2.0 °F 3.2 °F 85% 30.03 in 10.0 mi SE 4.6 mph - N/A   Clear
3:33 AM 6.8 °F -5.9 °F 3.2 °F 85% 30.02 in 10.0 mi SE 8.1 mph - N/A   Clear
3:53 AM 6.8 °F -4.8 °F 3.2 °F 85% 30.02 in 10.0 mi SE 6.9 mph - N/A   Clear
4:14 AM 6.8 °F -0.1 °F 3.2 °F 85% 30.01 in 10.0 mi ESE 3.5 mph - N/A   Clear
4:33 AM 6.8 °F -3.5 °F 3.2 °F 85% 30.00 in 10.0 mi SE 5.8 mph - N/A   Clear
4:53 AM 6.8 °F -2.0 °F 3.2 °F 85% 29.99 in 10.0 mi ESE 4.6 mph - N/A   Clear
5:14 AM 6.8 °F -3.5 °F 3.2 °F 85% 29.99 in 10.0 mi ESE 5.8 mph - N/A   Clear
5:33 AM 6.8 °F -0.1 °F 3.2 °F 85% 29.98 in 10.0 mi ESE 3.5 mph - N/A   Clear
5:53 AM 6.8 °F -2.0 °F 3.2 °F 85% 29.98 in 10.0 mi ESE 4.6 mph - N/A   Clear
6:14 AM 6.8 °F -0.1 °F 3.2 °F 85% 29.98 in 10.0 mi SE 3.5 mph - N/A   Clear
6:33 AM 6.8 °F - 3.2 °F 85% 29.97 in 10.0 mi Calm Calm - N/A   Clear
6:53 AM 6.8 °F - 3.2 °F 85% 29.97 in 10.0 mi Calm Calm - N/A   Clear
7:14 AM 6.8 °F - 3.2 °F 85% 29.98 in 10.0 mi Calm Calm - N/A   Clear
7:33 AM 5.0 °F - 3.2 °F 92% 29.98 in 10.0 mi Calm Calm - N/A   Clear
7:53 AM 6.8 °F - 3.2 °F 85% 29.98 in 10.0 mi Calm Calm - N/A   Clear
8:14 AM 6.8 °F -0.1 °F 3.2 °F 85% 29.98 in 10.0 mi North 3.5 mph - N/A   Clear
8:33 AM 6.8 °F - 3.2 °F 85% 29.98 in 10.0 mi Calm Calm - N/A   Clear
8:53 AM 6.8 °F -2.0 °F 3.2 °F 85% 29.98 in 10.0 mi North 4.6 mph - N/A   Clear
9:13 AM 8.6 °F 2.0 °F 3.2 °F 79% 29.98 in 10.0 mi North 3.5 mph - N/A   Clear
9:33 AM 8.6 °F - 5.0 °F 85% 29.99 in 10.0 mi Calm Calm - N/A   Clear
9:54 AM 8.6 °F 2.0 °F 5.0 °F 85% 30.00 in 10.0 mi NNW 3.5 mph - N/A   Clear
10:13 AM 8.6 °F - 5.0 °F 85% 30.00 in 10.0 mi Calm Calm - N/A   Clear
10:33 AM 10.4 °F - 6.8 °F 85% 29.99 in 7.0 mi Calm Calm - N/A   Clear
10:54 AM 12.2 °F - 6.8 °F 79% 29.99 in 7.0 mi Calm Calm - N/A   Unknown
11:13 AM 14.0 °F 6.5 °F 6.8 °F 73% 29.99 in 10.0 mi NNW 4.6 mph - N/A   Unknown
11:33 AM 14.0 °F 8.2 °F 8.6 °F 79% 29.99 in 10.0 mi NW 3.5 mph - N/A   Unknown
11:54 AM 15.8 °F - 8.6 °F 73% 29.97 in 10.0 mi Calm Calm - N/A   Unknown
12:13 PM 17.6 °F - 10.4 °F 73% 29.97 in 10.0 mi Calm Calm - N/A   Clear
12:33 PM 19.4 °F 11.5 °F 12.2 °F 74% 29.97 in 10.0 mi NW 5.8 mph - N/A   Clear
12:54 PM 21.2 °F 16.4 °F 14.0 °F 74% 29.96 in 10.0 mi NW 3.5 mph - N/A   Clear
1:13 PM 21.2 °F 14.9 °F 15.8 °F 80% 29.97 in 10.0 mi NW 4.6 mph - N/A   Clear
1:54 PM 21.2 °F 13.6 °F 15.8 °F 80% 29.96 in 10.0 mi WNW 5.8 mph - N/A   Clear
2:13 PM 23.0 °F 17.0 °F 15.8 °F 74% 29.95 in 10.0 mi NW 4.6 mph - N/A   Clear
2:33 PM 21.2 °F 11.7 °F 15.8 °F 80% 29.96 in 10.0 mi WNW 8.1 mph - N/A   Clear
2:54 PM 21.2 °F 11.7 °F 15.8 °F 80% 29.97 in 10.0 mi NW 8.1 mph - N/A   Clear
3:13 PM 21.2 °F 13.6 °F 15.8 °F 80% 29.98 in 10.0 mi NW 5.8 mph - N/A   Clear
3:33 PM 19.4 °F 8.6 °F 14.0 °F 80% 29.99 in 10.0 mi NW 9.2 mph - N/A   Clear
3:54 PM 19.4 °F 9.5 °F 12.2 °F 74% 29.99 in 10.0 mi NW 8.1 mph - N/A   Clear
4:13 PM 17.6 °F 5.7 °F 12.2 °F 79% 29.99 in 10.0 mi WNW 10.4 mph - N/A   Clear
4:33 PM 15.8 °F 5.1 °F 12.2 °F 86% 30.00 in 10.0 mi NW 8.1 mph - N/A   Clear
4:54 PM 15.8 °F 4.2 °F 10.4 °F 79% 30.01 in 10.0 mi NNW 9.2 mph - N/A   Clear
5:13 PM 15.8 °F 6.1 °F 10.4 °F 79% 30.02 in 10.0 mi NW 6.9 mph - N/A   Clear
5:33 PM 12.2 °F 1.7 °F 8.6 °F 85% 30.03 in 10.0 mi NW 6.9 mph - N/A   Clear
5:54 PM 12.2 °F 1.7 °F 10.4 °F 92% 30.03 in 10.0 mi NNW 6.9 mph - N/A   Clear
6:13 PM 14.0 °F 2.0 °F 10.4 °F 86% 30.03 in 10.0 mi NNW 9.2 mph - N/A   Clear
6:33 PM 14.0 °F 2.0 °F 10.4 °F 86% 30.03 in 10.0 mi NW 9.2 mph - N/A   Clear
6:54 PM 12.2 °F -0.2 °F 8.6 °F 85% 30.03 in 10.0 mi NNW 9.2 mph - N/A   Clear
7:13 PM 12.2 °F -1.8 °F 8.6 °F 85% 30.04 in 10.0 mi NW 11.5 mph - N/A   Clear
7:33 PM 12.2 °F -2.5 °F 8.6 °F 85% 30.04 in 10.0 mi NNW 12.7 mph - N/A   Clear
7:54 PM 10.4 °F -3.3 °F 6.8 °F 85% 30.04 in 10.0 mi NNW 10.4 mph - N/A   Clear
8:13 PM 10.4 °F -3.3 °F 6.8 °F 85% 30.05 in 10.0 mi NNW 10.4 mph - N/A   Clear
8:33 PM 8.6 °F -4.7 °F 6.8 °F 92% 30.06 in 10.0 mi NNW 9.2 mph - N/A   Clear
8:54 PM 8.6 °F -3.7 °F 6.8 °F 92% 30.06 in 10.0 mi NNW 8.1 mph - N/A   Clear
9:13 PM 8.6 °F -4.7 °F 5.0 °F 85% 30.06 in 10.0 mi North 9.2 mph - N/A   Clear
9:33 PM 8.6 °F -6.3 °F 6.8 °F 92% 30.06 in 10.0 mi North 11.5 mph - N/A   Scattered Clouds
9:54 PM 8.6 °F -7.7 °F 6.8 °F 92% 30.06 in 10.0 mi North 13.8 mph 18.4 mph N/A Snow Light Snow
10:13 PM 8.6 °F -7.0 °F 6.8 °F 92% 30.06 in 10.0 mi NNE 12.7 mph 18.4 mph N/A   Scattered Clouds
10:33 PM 8.6 °F -7.7 °F 6.8 °F 92% 30.06 in 10.0 mi NNE 13.8 mph - N/A Snow Light Snow
10:54 PM 8.6 °F -6.3 °F 5.0 °F 85% 30.06 in 10.0 mi NNE 11.5 mph - N/A   Clear
11:13 PM 8.6 °F -6.3 °F 5.0 °F 85% 30.06 in 10.0 mi NNE 11.5 mph - N/A   Clear
11:33 PM 8.6 °F -6.3 °F 6.8 °F 92% 30.06 in 10.0 mi North 11.5 mph - N/A   Scattered Clouds
11:54 PM 8.6 °F -1.3 °F 5.0 °F 85% 30.07 in 10.0 mi North 5.8 mph - N/A   Clear